Time,TemperatureF,DewpointF,PressureIn,WindDirection,WindDirectionDegrees,WindSpeedMPH,WindSpeedGustMPH,Humidity,HourlyPrecipIn,Conditions,Clouds,dailyrainin,SoftwareType,DateUTC
2013-05-21 00:14:00,69.3,69.0,29.88,ESE,112,1.7,-999.0,99,-99.99,,,0.00,Acu-Link.com,2013-05-21 04:14:00,
2013-05-21 00:45:00,69.3,69.0,29.88,SW,225,1.7,-999.0,99,-99.99,,,0.00,Acu-Link.com,2013-05-21 04:45:00,
2013-05-21 02:43:00,68.9,68.6,29.87,ESE,112,2.7,-999.0,99,-99.99,,,0.00,Acu-Link.com,2013-05-21 06:43:00,
2013-05-21 02:59:00,69.1,68.8,29.87,SE,135,2.7,-999.0,99,-99.99,,,0.00,Acu-Link.com,2013-05-21 06:59:00,
2013-05-21 03:30:00,69.1,68.8,29.87,SW,225,0.0,-999.0,99,-99.99,,,0.00,Acu-Link.com,2013-05-21 07:30:00,
2013-05-21 03:45:00,69.3,69.0,29.86,ESE,112,1.7,-999.0,99,-99.99,,,0.00,Acu-Link.com,2013-05-21 07:45:00,
2013-05-21 04:00:00,69.3,69.0,29.86,East,90,0.0,-999.0,99,-99.99,,,0.00,Acu-Link.com,2013-05-21 08:00:00,
2013-05-21 04:15:00,69.3,69.0,29.86,ENE,67,0.0,-999.0,99,-99.99,,,0.00,Acu-Link.com,2013-05-21 08:15:00,
2013-05-21 04:31:00,69.3,69.0,29.86,ESE,112,1.7,-999.0,99,-99.99,,,0.00,Acu-Link.com,2013-05-21 08:31:00,
2013-05-21 04:48:00,69.3,69.0,29.86,WSW,247,1.7,-999.0,99,-99.99,,,0.00,Acu-Link.com,2013-05-21 08:48:00,
2013-05-21 05:25:00,69.3,69.0,29.88,ESE,112,0.0,-999.0,99,-99.99,,,0.00,Acu-Link.com,2013-05-21 09:25:00,
2013-05-21 05:44:00,69.1,68.8,29.88,ENE,67,0.0,-999.0,99,-99.99,,,0.00,Acu-Link.com,2013-05-21 09:44:00,
2013-05-21 05:59:00,69.1,68.8,29.88,SE,135,0.0,-999.0,99,-99.99,,,0.00,Acu-Link.com,2013-05-21 09:59:00,
2013-05-21 06:14:00,69.1,68.8,29.88,ESE,112,1.7,-999.0,99,-99.99,,,0.00,Acu-Link.com,2013-05-21 10:14:00,
2013-05-21 06:29:00,69.1,68.8,29.89,West,270,0.0,-999.0,99,-99.99,,,0.00,Acu-Link.com,2013-05-21 10:29:00,
2013-05-21 06:46:00,69.1,68.8,29.89,ESE,112,0.0,-999.0,99,-99.99,,,0.00,Acu-Link.com,2013-05-21 10:46:00,
2013-05-21 07:11:00,69.4,69.1,29.90,ESE,112,2.7,-999.0,99,-99.99,,,0.00,Acu-Link.com,2013-05-21 11:11:00,
2013-05-21 07:27:00,69.6,69.3,29.90,ESE,112,1.7,-999.0,99,-99.99,,,0.00,Acu-Link.com,2013-05-21 11:27:00,
2013-05-21 07:42:00,70.0,69.4,29.89,East,90,2.7,-999.0,98,-99.99,,,0.00,Acu-Link.com,2013-05-21 11:42:00,
2013-05-21 07:59:00,70.3,70.0,29.89,East,90,2.7,-999.0,99,-99.99,,,0.00,Acu-Link.com,2013-05-21 11:59:00,
2013-05-21 08:14:00,70.5,70.2,29.89,ESE,112,1.1,-999.0,99,-99.99,,,0.00,Acu-Link.com,2013-05-21 12:14:00,
2013-05-21 08:30:00,71.1,70.5,29.89,SE,135,4.2,-999.0,98,-99.99,,,0.01,Acu-Link.com,2013-05-21 12:30:00,
2013-05-21 08:45:00,72.0,70.5,29.90,ENE,67,3.7,-999.0,95,-99.99,,,0.01,Acu-Link.com,2013-05-21 12:45:00,
2013-05-21 09:00:00,72.9,70.8,29.90,ESE,112,3.7,-999.0,93,-99.99,,,0.01,Acu-Link.com,2013-05-21 13:00:00,
2013-05-21 09:15:00,72.5,70.7,29.91,SSW,202,2.2,-999.0,94,-99.99,,,0.01,Acu-Link.com,2013-05-21 13:15:00,
2013-05-21 09:31:00,73.4,70.9,29.91,West,270,2.7,-999.0,92,-99.99,,,0.01,Acu-Link.com,2013-05-21 13:31:00,
2013-05-21 15:26:00,86.5,72.8,29.81,WNW,292,3.2,-999.0,64,-99.99,,,0.01,Acu-Link.com,2013-05-21 19:26:00,
2013-05-21 16:06:00,87.4,72.8,29.80,ENE,67,3.2,-999.0,62,-99.99,,,0.01,Acu-Link.com,2013-05-21 20:06:00,
2013-05-21 16:23:00,86.2,73.5,29.79,SSW,202,0.0,-999.0,66,-99.99,,,0.01,Acu-Link.com,2013-05-21 20:23:00,
2013-05-21 16:39:00,86.4,73.7,29.79,SSW,202,6.8,-999.0,66,-99.99,,,0.01,Acu-Link.com,2013-05-21 20:39:00,
2013-05-21 16:55:00,82.0,72.9,29.80,WSW,247,5.3,-999.0,74,-99.99,,,0.01,Acu-Link.com,2013-05-21 20:55:00,
2013-05-21 17:10:00,81.1,71.6,29.80,ESE,112,5.3,-999.0,73,-99.99,,,0.01,Acu-Link.com,2013-05-21 21:10:00,
2013-05-21 17:25:00,81.9,73.2,29.80,SSE,157,4.2,-999.0,75,-99.99,,,0.01,Acu-Link.com,2013-05-21 21:25:00,
2013-05-21 17:41:00,82.6,72.6,29.80,ESE,112,3.2,-999.0,72,-99.99,,,0.01,Acu-Link.com,2013-05-21 21:41:00,
2013-05-21 17:56:00,82.2,73.1,29.80,ENE,67,3.2,-999.0,74,-99.99,,,0.01,Acu-Link.com,2013-05-21 21:56:00,
2013-05-21 18:57:00,82.8,72.8,29.80,West,270,2.2,-999.0,72,-99.99,,,0.01,Acu-Link.com,2013-05-21 22:57:00,
2013-05-21 19:12:00,78.3,71.2,29.80,SSE,157,3.7,-999.0,79,-99.99,,,0.01,Acu-Link.com,2013-05-21 23:12:00,
2013-05-21 19:27:00,78.1,70.7,29.79,ESE,112,4.2,-999.0,78,-99.99,,,0.01,Acu-Link.com,2013-05-21 23:27:00,
2013-05-21 19:42:00,77.0,70.0,29.79,East,90,4.7,-999.0,79,-99.99,,,0.01,Acu-Link.com,2013-05-21 23:42:00,
2013-05-21 19:57:00,76.3,70.0,29.79,NNW,337,1.7,-999.0,81,-99.99,,,0.01,Acu-Link.com,2013-05-21 23:57:00,
2013-05-21 20:12:00,75.0,69.5,29.79,SSE,157,4.2,-999.0,83,-99.99,,,0.01,Acu-Link.com,2013-05-22 00:12:00,
2013-05-21 20:27:00,74.1,68.9,29.79,East,90,5.8,-999.0,84,-99.99,,,0.01,Acu-Link.com,2013-05-22 00:27:00,
2013-05-21 20:43:00,73.2,68.8,29.79,ESE,112,3.7,-999.0,86,-99.99,,,0.01,Acu-Link.com,2013-05-22 00:43:00,
2013-05-21 20:58:00,72.7,68.9,29.79,ESE,112,4.7,-999.0,88,-99.99,,,0.01,Acu-Link.com,2013-05-22 00:58:00,
2013-05-21 21:13:00,72.3,68.9,29.80,ESE,112,4.7,-999.0,89,-99.99,,,0.01,Acu-Link.com,2013-05-22 01:13:00,
2013-05-21 21:28:00,72.0,68.9,29.81,SSE,157,3.7,-999.0,90,-99.99,,,0.01,Acu-Link.com,2013-05-22 01:28:00,
2013-05-21 21:49:00,71.6,68.8,29.81,NE,45,2.2,-999.0,91,-99.99,,,0.01,Acu-Link.com,2013-05-22 01:49:00,
2013-05-21 22:04:00,70.9,69.1,29.81,ESE,112,3.7,-999.0,94,-99.99,,,0.01,Acu-Link.com,2013-05-22 02:04:00,
2013-05-21 22:57:00,70.3,69.7,29.82,SE,135,1.7,-999.0,98,-99.99,,,0.01,Acu-Link.com,2013-05-22 02:57:00,
2013-05-21 23:13:00,70.2,69.9,29.83,WSW,247,2.2,-999.0,99,-99.99,,,0.01,Acu-Link.com,2013-05-22 03:13:00,
2013-05-21 23:28:00,70.2,69.9,29.83,SSW,202,3.7,-999.0,99,-99.99,,,0.01,Acu-Link.com,2013-05-22 03:28:00,
2013-05-21 23:43:00,70.2,69.9,29.83,East,90,2.2,-999.0,99,-99.99,,,0.01,Acu-Link.com,2013-05-22 03:43:00,
2013-05-21 23:59:00,70.2,69.9,29.84,East,90,2.7,-999.0,99,-99.99,,,0.01,Acu-Link.com,2013-05-22 03:59:00,